CYGNUS NG-18

Last updated on Sun Apr 23 2023 00:02:07 GMT+0000 (Coordinated Universal Time)

1 54232U 22149A 23111.86454064 -.44006882 12620-4 -38531-1 0 9999 2 54232 51.6950 247.5418 0172018 237.1934 250.1436 15.88671763 25665

Satellite not in orbit